TimeMST,TemperatureF,Dew PointF,Humidity,Sea Level PressureIn,VisibilityMPH,Wind Direction,Wind SpeedMPH,Gust SpeedMPH,PrecipitationIn,Events,Conditions,WindDirDegrees,DateUTC
12:53 AM,15.1,8.1,74,29.82,10.0,WNW,8.1,-,N/A,,Clear,290,2012-12-19 07:53:00
1:53 AM,17.1,12.9,84,29.86,10.0,West,12.7,-,N/A,,Clear,280,2012-12-19 08:53:00
2:53 AM,14.0,10.9,88,29.86,10.0,West,6.9,-,N/A,,Clear,260,2012-12-19 09:53:00
3:53 AM,16.0,12.0,84,29.87,9.0,WSW,11.5,-,N/A,,Clear,250,2012-12-19 10:53:00
4:53 AM,15.1,10.9,84,29.90,10.0,WNW,11.5,-,N/A,,Partly Cloudy,290,2012-12-19 11:53:00
5:53 AM,12.9,7.0,77,29.92,10.0,WNW,15.0,-,N/A,,Clear,290,2012-12-19 12:53:00
6:53 AM,10.9,6.1,81,29.96,10.0,WNW,6.9,-,N/A,,Clear,290,2012-12-19 13:53:00
7:53 AM,8.1,3.9,83,29.99,10.0,West,8.1,-,N/A,,Clear,280,2012-12-19 14:53:00
8:53 AM,12.0,8.1,84,30.02,10.0,WNW,9.2,-,N/A,,Clear,290,2012-12-19 15:53:00
9:53 AM,17.1,10.0,74,30.04,10.0,WNW,19.6,-,N/A,,Clear,300,2012-12-19 16:53:00
10:53 AM,21.0,12.9,71,30.05,10.0,WNW,20.7,-,N/A,,Clear,300,2012-12-19 17:53:00
11:13 AM,21.2,14.0,74,29.92,10.0,WNW,21.9,28.8,N/A,,Mostly Cloudy,300,2012-12-19 18:13:00
11:53 AM,21.9,14.0,72,30.03,10.0,NW,21.9,-,N/A,,Scattered Clouds,310,2012-12-19 18:53:00
12:53 PM,24.1,14.0,65,30.04,10.0,NW,16.1,-,N/A,,Clear,310,2012-12-19 19:53:00
1:53 PM,25.0,14.0,63,30.05,10.0,NW,16.1,-,N/A,,Clear,310,2012-12-19 20:53:00
2:53 PM,25.0,12.9,60,30.07,10.0,WNW,17.3,24.2,N/A,,Clear,300,2012-12-19 21:53:00
3:53 PM,19.9,12.0,71,30.10,10.0,NW,9.2,-,N/A,,Clear,320,2012-12-19 22:53:00
4:53 PM,12.9,9.0,84,30.15,10.0,NW,9.2,-,N/A,,Scattered Clouds,310,2012-12-19 23:53:00
5:53 PM,10.9,7.0,84,30.17,10.0,NW,9.2,-,N/A,,Clear,320,2012-12-20 00:53:00
6:53 PM,10.9,7.0,84,30.20,10.0,Calm,Calm,-,N/A,,Clear,0,2012-12-20 01:53:00
7:53 PM,3.0,-0.9,84,30.22,9.0,West,5.8,-,N/A,,Clear,280,2012-12-20 02:53:00
8:53 PM,1.9,-2.0,83,30.23,9.0,West,3.5,-,N/A,,Clear,280,2012-12-20 03:53:00
9:53 PM,1.0,-2.9,83,30.22,8.0,Calm,Calm,-,N/A,,Clear,0,2012-12-20 04:53:00
10:53 PM,3.0,-0.9,84,30.21,8.0,Calm,Calm,-,N/A,,Clear,0,2012-12-20 05:53:00
11:53 PM,3.9,-0.0,84,30.21,9.0,WNW,6.9,-,N/A,,Clear,300,2012-12-20 06:53:00